This is the latest recevied weather packets stored in our database for station/object WI0K. If no packets are shown the sender has not sent any weather packets the latest 10 day(s).
| Time | Temp. | Humidity | Pressure | Rain* | Wind** | Luminosity | Snow |
|---|---|---|---|---|---|---|---|
| 1788372792 | 27.78° C | 27% | 1019.2 hPa | 0 mm | - | 924 W/m² | - |
| 1788372491 | 28.33° C | 27% | 1019.4 hPa | 0 mm | - | 920 W/m² | - |
| 1788372190 | 28.89° C | 27% | 1019.4 hPa | 0 mm | - | 914 W/m² | - |
| 1788371889 | 28.89° C | 28% | 1019.4 hPa | 0 mm | - | 904 W/m² | - |
| 1788371589 | 28.89° C | 27% | 1019.6 hPa | 0 mm | - | 898 W/m² | - |
| 1788371288 | 28.33° C | 27% | 1019.6 hPa | 0 mm | - | 894 W/m² | - |
| 1788370987 | 28.33° C | 28% | 1019.6 hPa | 0 mm | - | 889 W/m² | - |
| 1788370686 | 28.33° C | 27% | 1019.6 hPa | 0 mm | - | 883 W/m² | - |
| 1788370385 | 27.78° C | 28% | 1019.6 hPa | 0 mm | - | 868 W/m² | - |
| 1788370085 | 27.78° C | 28% | 1019.6 hPa | 0 mm | - | 868 W/m² | - |
| 1788369784 | 27.78° C | 28% | 1019.6 hPa | 0 mm | - | 859 W/m² | - |
| 1788369483 | 27.78° C | 28% | 1019.7 hPa | 0 mm | - | 849 W/m² | - |
| 1788369180 | 27.78° C | 30% | 1019.7 hPa | 0 mm | - | 838 W/m² | - |
| 1788368879 | 27.78° C | 29% | 1019.7 hPa | 0 mm | - | 829 W/m² | - |
| 1788368578 | 27.78° C | 27% | 1019.8 hPa | 0 mm | - | 818 W/m² | - |
| 1788368277 | 27.22° C | 28% | 1019.7 hPa | 0 mm | - | 806 W/m² | - |
| 1788367976 | 26.67° C | 29% | 1019.8 hPa | 0 mm | - | 800 W/m² | - |
| 1788367675 | 26.67° C | 30% | 1019.8 hPa | 0 mm | - | 786 W/m² | - |
| 1788367374 | 26.67° C | 29% | 1019.9 hPa | 0 mm | - | 774 W/m² | - |
| 1788367073 | 26.67° C | 30% | 1019.9 hPa | 0 mm | - | 757 W/m² | - |
| 1788366773 | 26.67° C | 30% | 1019.9 hPa | 0 mm | - | 744 W/m² | - |
| 1788366472 | 26.67° C | 31% | 1019.9 hPa | 0 mm | - | 735 W/m² | - |
| 1788366171 | 26.67° C | 30% | 1019.9 hPa | 0 mm | - | 722 W/m² | - |
| 1788365870 | 26.11° C | 32% | 1019.8 hPa | 0 mm | - | 709 W/m² | - |
| 1788365569 | 25.56° C | 32% | 1019.9 hPa | 0 mm | - | 696 W/m² | - |
* Rain latest hour (hover to see other rain measurements)
** Current wind speed in m/s (hover to see current wind gust speed)